COSMOS 735

Satellite information

Favourite Embed

Satellite Type and Status

PAYLOADIN ORBIT

Key statistics

Satellite COSMOS 735 at a glance.

Uptime

18247

Days in orbit

Revolutions

≈ 12.5

Per day

Orbit

LEO

Low Earth Orbit

Inclination

74.0

Latest

Satellite identification and parameters

Extended collection of information and parameters for COSMOS 735.

Object identification

Identified? True

Debris? False

Object name: COSMOS 735

International designator: 1975-045D

Object number (NORAD): 7824

Object ID (CCSDS): 7824

Country: COMMONWEALTH OF INDEPENDENT STATES (CIS)

Current information (Y/N): Y

RCS size: MEDIUM

Orbital parameters

Period: 115.259 minutes

Inclination: 74.0146 deg

SMA: 7845.3 km

Apoapsis: 1473.126 km

Periapsis: 1461.205 km

RAAN: 150.2755 deg

Eccentricy: 0.0007598

Argument of periapsis: 158.1791 deg

Mean anomaly: 15.3262 deg

Mean motion: 12.49362289 rev/day

Mean motion (dot): 0.00000018 rev/day2

B* drag term: 0.0002276 1/REarth

Two-line elements (TLE)

Creation date: May 11, 2025, 2:40 a.m.

Reference frame: TEME

Reference center: EARTH

Epoch: May 10, 2025, 6:43 p.m. UTC

TLE line 0: 0 COSMOS 735

TLE line 1: 1 07824U 75045D 25130.78018396 .00000018 00000-0 22760-3 0 9994

TLE line 2: 2 07824 74.0146 150.2755 0007598 158.1791 15.3262 12.49362289278328

Live tracking on map

Real-time ground track for satellite COSMOS 735.

In-orbit conjunctions

There are no conjunctions computed for COSMOS 735, at the moment. Check back to stay up to date, as we update our databases every day.

Go to all conjunctions

Associated space launch

Military communications satellites

COSMOS 735 was lifted into orbit during the mission ‘Kosmos-3M | Strela-1M 89-96’, on board a Kosmos-3M space rocket.

The launch took place on May 28, 1975, 12:25 a.m. from 132/1 (132L).

For more information about the launch, click the button.

Launch to space Kosmos-3M | Strela-1M 89-96
Kosmos-3M | Strela-1M 89-96

Agency: N/A

Status: Launch Successful

Launch date: May 28, 1975, 12:25 a.m. UTC

Rocket: Kosmos-3M

Launch pad: 132/1 (132L)

Location: Plesetsk Cosmodrome, Russian Federation

...

Latest news about this satellite

There are no fresh news available about this satellite. Check back as we update our databases every day.


Newsletter sign-up

Weekly statistics, charts and insights to help you stay on top of the space industry.